Evans Head Observation History
Time Wind Speed Temp Pressure Rel. Hum Rain
04/04:00am SW 12-17 kts 12.8°c 1025.7 hPa 56% 0.0mm
04/03:30am SW 10-15 kts 12.5°c 1025.7 hPa 57% 0.0mm
04/03:00am SW 11-15 kts 12.8°c 1025.7 hPa 55% 0.0mm
04/02:30am SW 11-15 kts 12.7°c 1025.7 hPa 55% 0.0mm
04/02:00am SW 10-16 kts 12.6°c 1025.9 hPa 56% 0.0mm
04/01:30am SSW 11-15 kts 12.5°c 1025.9 hPa 56% 0.0mm
04/01:00am SW 11-15 kts 12.4°c 1025.9 hPa 57% 0.0mm
04/12:30am SSW 10-14 kts 12.6°c 1026.0 hPa 58% 0.0mm
04/12:00am SSW 11-15 kts 12.8°c 1025.9 hPa 58% 0.0mm
Time Wind Speed Temp Pressure Rel. Hum Rain
03/11:30pm SSW 12-17 kts 13.2°c 1025.8 hPa 59% 0.0mm
03/11:00pm SW 10-14 kts 13.1°c 1026.0 hPa 60% 0.0mm
03/10:30pm SSW 11-16 kts 13.7°c 1026.0 hPa 58% 0.0mm
03/10:00pm SSW 11-17 kts 13.9°c 1025.8 hPa 58% 0.0mm
03/09:30pm SW 11-15 kts 14.1°c 1025.6 hPa 59% 0.0mm
03/09:00pm SW 10-15 kts 14.2°c 1025.3 hPa 61% 0.0mm
03/08:30pm SW 11-15 kts 14.5°c 1025.0 hPa 62% 0.0mm
03/08:00pm SW 10-14 kts 15.2°c 1024.8 hPa 59% 0.0mm
03/07:30pm S 15-21 kts 17.1°c 1024.4 hPa 50% 0.0mm
03/07:00pm S 15-21 kts 16.9°c 1023.9 hPa 52% 0.0mm
03/06:30pm SSE 19-24 kts 16.9°c 1023.2 hPa 56% 0.0mm
03/06:00pm SSE 18-24 kts 16.8°c 1022.4 hPa 56% 0.0mm
03/05:30pm S 15-23 kts 16.3°c 1022.1 hPa 59% 0.0mm
03/05:00pm SSE 15-22 kts 16.1°c 1021.7 hPa 65% 0.0mm
03/04:30pm S 15-21 kts 16.2°c 1021.2 hPa 60% 0.0mm
03/04:00pm SSE 15-22 kts 16.5°c 1021.1 hPa 60% 0.0mm
03/03:30pm S 13-19 kts 17.0°c 1020.9 hPa 56% 0.0mm
03/03:00pm S 13-18 kts 17.1°c 1020.6 hPa 51% 0.0mm
03/02:30pm S 11-15 kts 18.0°c 1020.4 hPa 47% 0.0mm
03/02:00pm SSE 11-15 kts 17.8°c 1020.2 hPa 46% 0.0mm
03/01:30pm SSE 10-14 kts 18.1°c 1020.0 hPa 43% 0.0mm
03/01:00pm S 8-11 kts 18.4°c 1020.0 hPa 40% 0.0mm
03/12:30pm SSW 6-12 kts 18.5°c 1020.3 hPa 38% 0.0mm
03/12:00pm SSW 4-7 kts 17.5°c 1020.6 hPa 39% 0.0mm
03/11:30am WSW 6-9 kts 17.2°c 1020.9 hPa 42% 0.0mm
03/11:00am WSW 5-8 kts 17.1°c 1021.2 hPa 46% 0.0mm
03/10:30am W 5-8 kts 15.8°c 1021.4 hPa 49% 0.0mm
03/10:00am WNW 6-9 kts 15.5°c 1021.6 hPa 53% 0.0mm
03/09:30am W 6-9 kts 14.3°c 1021.5 hPa 55% 0.0mm
03/09:00am WNW 4-7 kts 13.4°c 1021.4 hPa 55% 0.0mm
03/08:30am WNW 5-8 kts 12.3°c 1021.1 hPa 59% 0.0mm
03/08:00am NW 6-9 kts 11.0°c 1021.0 hPa 63% 0.0mm
03/07:30am NW 7-9 kts 9.4°c 1020.7 hPa 67% 0.0mm
03/07:00am NW 5-7 kts 6.9°c 1020.2 hPa 76% 0.0mm
03/06:30am NW 6-9 kts 7.0°c 1019.7 hPa 75% 0.0mm
03/06:00am NNW 5-7 kts 6.8°c 1019.5 hPa 76% 0.0mm
03/05:30am NW 7-9 kts 7.6°c 1019.1 hPa 71% 0.0mm
03/05:00am WNW 6-8 kts 8.3°c 1018.7 hPa 66% 0.0mm
03/04:30am WNW 6-9 kts 8.3°c 1018.5 hPa 67% 0.0mm
03/04:00am W 6-8 kts 8.5°c 1018.3 hPa 65% 0.0mm
03/03:30am WNW 6-8 kts 8.8°c 1018.2 hPa 64% 0.0mm
03/03:00am WNW 8-11 kts 9.3°c 1018.4 hPa 62% 0.0mm
03/02:30am WNW 9-14 kts 9.9°c 1018.4 hPa 59% 0.0mm
03/02:00am WNW 8-12 kts 10.2°c 1018.3 hPa 58% 0.0mm
03/01:30am NW 9-13 kts 10.2°c 1018.3 hPa 58% 0.0mm
03/01:00am NNW 8-12 kts 8.8°c 1018.6 hPa 65% 0.0mm
03/12:30am NW 6-8 kts 9.4°c 1018.7 hPa 61% 0.0mm
03/12:00am NW 7-9 kts 10.0°c 1018.7 hPa 58% 0.0mm
Time Wind Speed Temp Pressure Rel. Hum Rain
02/11:30pm WNW 8-11 kts 11.0°c 1019.0 hPa 53% 0.0mm
02/11:00pm NW 9-14 kts 10.9°c 1018.9 hPa 54% 0.0mm
02/10:30pm NW 9-15 kts 11.3°c 1019.0 hPa 52% 0.0mm
02/10:00pm NW 9-14 kts 10.8°c 1018.7 hPa 54% 0.0mm
02/09:30pm NW 10-17 kts 11.7°c 1018.6 hPa 50% 0.0mm
02/09:00pm NW 9-16 kts 11.7°c 1018.5 hPa 50% 0.0mm
02/08:30pm NW 10-15 kts 12.0°c 1018.3 hPa 49% 0.0mm
02/08:00pm NW 8-13 kts 11.9°c 1018.4 hPa 49% 0.0mm
02/07:30pm NW 9-15 kts 12.5°c 1018.1 hPa 47% 0.0mm
02/07:00pm NNW 7-11 kts 11.8°c 1017.6 hPa 52% 0.0mm
02/06:30pm WNW 8-15 kts 13.7°c 1016.9 hPa 43% 0.0mm
02/06:00pm NW 8-11 kts 13.3°c 1016.2 hPa 45% 0.0mm
02/05:30pm NW 6-9 kts 13.0°c 1015.9 hPa 49% 0.0mm
02/05:00pm NW 6-8 kts 13.3°c 1015.6 hPa 51% 0.0mm
02/04:30pm NW 4-5 kts 15.2°c 1015.3 hPa 46% 0.0mm
02/04:00pm W 7-12 kts 16.7°c 1015.0 hPa 34% 0.0mm
02/03:30pm W 9-15 kts 17.6°c 1014.8 hPa 33% 0.0mm
02/03:00pm W 8-13 kts 17.8°c 1014.7 hPa 33% 0.0mm
02/02:30pm W 7-12 kts 18.3°c 1014.5 hPa 33% 0.0mm
02/02:00pm WSW 10-16 kts 17.9°c 1014.4 hPa 33% 0.0mm
02/01:30pm WNW 7-14 kts 18.5°c 1014.8 hPa 34% 0.0mm
02/01:00pm W 11-17 kts 17.6°c 1014.9 hPa 32% 0.0mm
02/12:30pm W 10-18 kts 17.3°c 1015.3 hPa 32% 0.0mm
02/12:00pm W 11-18 kts 16.8°c 1015.7 hPa 36% 0.0mm
02/11:30am WNW 12-19 kts 16.9°c 1015.7 hPa 37% 0.0mm
02/11:00am WNW 10-18 kts 16.3°c 1016.1 hPa 35% 0.0mm
02/10:30am WNW 7-14 kts 15.9°c 1016.6 hPa 37% 0.0mm
02/10:00am WNW 12-21 kts 15.2°c 1016.7 hPa 39% 0.0mm
02/09:30am W 12-21 kts 14.3°c 1016.9 hPa 41% 0.0mm
02/09:00am W 10-16 kts 14.4°c 1016.8 hPa 48% 0.0mm
02/08:30am WSW 9-14 kts 13.6°c 1016.9 hPa 47% 0.0mm
02/08:00am WSW 7-12 kts 13.0°c 1016.9 hPa 53% 0.0mm
02/07:30am W 6-9 kts 12.7°c 1016.6 hPa 56% 0.0mm
02/07:00am WNW 6-9 kts 12.1°c 1016.0 hPa 58% 0.0mm
02/06:30am WNW 8-13 kts 12.9°c 1015.3 hPa 55% 0.0mm
02/06:00am NW 9-15 kts 13.0°c 1014.6 hPa 57% 0.0mm
02/05:30am NW 11-19 kts 13.5°c 1014.2 hPa 56% 0.0mm
02/05:00am NW 11-18 kts 14.0°c 1013.9 hPa 55% 0.0mm
02/04:30am NNW 10-16 kts 13.3°c 1013.6 hPa 60% 0.0mm
02/04:00am NW 9-14 kts 13.3°c 1013.4 hPa 60% 0.0mm
02/03:30am NNW 9-16 kts 13.6°c 1013.1 hPa 60% 0.0mm
02/03:00am NNW 9-15 kts 13.5°c 1012.9 hPa 62% 0.0mm
02/02:30am NNW 8-13 kts 13.2°c 1012.6 hPa 72% 0.0mm
02/02:00am NNW 8-12 kts 13.2°c 1012.7 hPa 79% 0.0mm
02/01:30am NNW 7-11 kts 13.8°c 1012.9 hPa 80% 0.0mm
02/01:00am NNW 9-12 kts 14.1°c 1012.8 hPa 87% 0.0mm
02/12:30am NNW 9-14 kts 14.5°c 1012.9 hPa 93% 0.0mm
02/12:00am NNW 7-10 kts 13.8°c 1012.9 hPa 93% 0.0mm